TimeCDT,TemperatureF,Dew PointF,Humidity,Sea Level PressureIn,VisibilityMPH,Wind Direction,Wind SpeedMPH,Gust SpeedMPH,PrecipitationIn,Events,Conditions,WindDirDegrees,DateUTC
12:33 AM,41.0,37.4,87,30.16,10.0,NE,8.1,-,N/A,,Clear,50,2013-05-10 05:33:00
12:53 AM,41.0,35.6,81,30.17,10.0,NE,9.2,-,N/A,,Clear,40,2013-05-10 05:53:00
1:13 AM,42.8,35.6,76,30.16,10.0,NE,11.5,-,N/A,,Clear,40,2013-05-10 06:13:00
1:33 AM,42.8,35.6,76,30.17,10.0,NE,11.5,-,N/A,,Clear,50,2013-05-10 06:33:00
1:54 AM,41.0,35.6,81,30.16,10.0,NE,10.4,-,N/A,,Clear,40,2013-05-10 06:54:00
2:13 AM,39.2,33.8,81,30.16,10.0,ENE,11.5,-,N/A,,Clear,60,2013-05-10 07:13:00
2:33 AM,39.2,33.8,81,30.16,10.0,NE,9.2,-,N/A,,Clear,50,2013-05-10 07:33:00
3:13 AM,37.4,30.2,75,30.16,10.0,NE,10.4,-,N/A,,Clear,50,2013-05-10 08:13:00
3:54 AM,35.6,30.2,81,30.15,10.0,NE,8.1,-,N/A,,Clear,40,2013-05-10 08:54:00
4:13 AM,35.6,30.2,81,30.15,10.0,NE,10.4,-,N/A,,Clear,40,2013-05-10 09:13:00
4:53 AM,33.8,28.4,81,30.15,10.0,NE,10.4,-,N/A,,Clear,50,2013-05-10 09:53:00
5:13 AM,33.8,28.4,81,30.15,10.0,NE,10.4,-,N/A,,Clear,40,2013-05-10 10:13:00
5:33 AM,33.8,28.4,81,30.15,10.0,NE,10.4,-,N/A,,Clear,40,2013-05-10 10:33:00
5:53 AM,32.0,28.4,87,30.16,10.0,NNE,9.2,-,N/A,,Clear,30,2013-05-10 10:53:00
6:13 AM,33.8,28.4,81,30.16,10.0,NNE,9.2,-,N/A,,Clear,30,2013-05-10 11:13:00
6:33 AM,33.8,28.4,81,30.15,10.0,NE,8.1,-,N/A,,Clear,40,2013-05-10 11:33:00
6:53 AM,33.8,28.4,81,30.15,10.0,NE,9.2,-,N/A,,Clear,40,2013-05-10 11:53:00
7:13 AM,35.6,30.2,81,30.15,10.0,NE,8.1,-,N/A,,Clear,50,2013-05-10 12:13:00
7:34 AM,37.4,30.2,75,30.15,10.0,ENE,9.2,-,N/A,,Clear,60,2013-05-10 12:34:00
7:53 AM,37.4,28.4,70,30.15,10.0,ENE,9.2,-,N/A,,Clear,60,2013-05-10 12:53:00
8:13 AM,39.2,28.4,65,30.15,10.0,ENE,10.4,-,N/A,,Clear,70,2013-05-10 13:13:00
8:34 AM,41.0,28.4,61,30.16,10.0,East,12.7,-,N/A,,Clear,90,2013-05-10 13:34:00
8:53 AM,42.8,28.4,57,30.16,10.0,East,10.4,-,N/A,,Clear,90,2013-05-10 13:53:00
9:13 AM,44.6,28.4,53,30.15,10.0,ENE,11.5,-,N/A,,Clear,70,2013-05-10 14:13:00
9:34 AM,44.6,28.4,53,30.15,10.0,East,9.2,-,N/A,,Clear,80,2013-05-10 14:34:00
9:53 AM,46.4,28.4,50,30.14,10.0,East,8.1,-,N/A,,Clear,90,2013-05-10 14:53:00
10:13 AM,48.2,28.4,46,30.14,10.0,East,4.6,-,N/A,,Clear,90,2013-05-10 15:13:00
10:33 AM,48.2,28.4,46,30.14,10.0,East,5.8,-,N/A,,Clear,90,2013-05-10 15:33:00
10:53 AM,50.0,28.4,43,30.13,10.0,ESE,6.9,-,N/A,,Clear,120,2013-05-10 15:53:00
11:13 AM,51.8,26.6,38,30.12,10.0,East,5.8,-,N/A,,Clear,100,2013-05-10 16:13:00
11:34 AM,53.6,26.6,35,30.10,10.0,NE,3.5,-,N/A,,Clear,40,2013-05-10 16:34:00
11:53 AM,53.6,24.8,33,30.11,10.0,Calm,Calm,-,N/A,,Clear,0,2013-05-10 16:53:00
12:13 PM,55.4,23.0,29,30.10,10.0,Calm,Calm,-,N/A,,Clear,0,2013-05-10 17:13:00
12:34 PM,57.2,24.8,29,30.10,10.0,East,3.5,-,N/A,,Clear,90,2013-05-10 17:34:00
12:53 PM,57.2,21.2,25,30.10,10.0,WNW,3.5,-,N/A,,Clear,290,2013-05-10 17:53:00
1:13 PM,59.0,21.2,23,30.08,10.0,South,8.1,-,N/A,,Clear,180,2013-05-10 18:13:00
1:33 PM,59.0,24.8,27,30.07,10.0,SW,3.5,-,N/A,,Clear,220,2013-05-10 18:33:00
1:53 PM,60.8,21.2,22,30.06,10.0,SW,3.5,-,N/A,,Clear,230,2013-05-10 18:53:00
2:13 PM,62.6,21.2,20,30.05,10.0,WSW,9.2,-,N/A,,Clear,240,2013-05-10 19:13:00
2:33 PM,62.6,21.2,20,30.04,10.0,SW,10.4,-,N/A,,Clear,220,2013-05-10 19:33:00
2:53 PM,62.6,21.2,20,30.03,10.0,WNW,5.8,-,N/A,,Clear,300,2013-05-10 19:53:00
3:13 PM,62.6,23.0,22,30.02,10.0,SW,5.8,-,N/A,,Clear,230,2013-05-10 20:13:00
3:33 PM,64.4,24.8,22,30.01,10.0,SW,10.4,-,N/A,,Clear,230,2013-05-10 20:33:00
3:53 PM,64.4,21.2,19,30.00,10.0,SW,10.4,-,N/A,,Clear,230,2013-05-10 20:53:00
4:14 PM,64.4,23.0,21,29.99,10.0,SW,9.2,-,N/A,,Clear,220,2013-05-10 21:14:00
4:33 PM,64.4,24.8,22,29.99,10.0,West,11.5,-,N/A,,Clear,260,2013-05-10 21:33:00
4:53 PM,64.4,24.8,22,29.98,10.0,West,11.5,18.4,N/A,,Clear,260,2013-05-10 21:53:00
5:14 PM,66.2,24.8,21,29.97,10.0,WSW,11.5,17.3,N/A,,Clear,250,2013-05-10 22:14:00
5:33 PM,66.2,24.8,21,29.96,10.0,WSW,13.8,17.3,N/A,,Clear,250,2013-05-10 22:33:00
5:53 PM,66.2,26.6,23,29.95,10.0,SW,9.2,-,N/A,,Clear,230,2013-05-10 22:53:00
6:14 PM,64.4,26.6,24,29.93,10.0,SW,11.5,-,N/A,,Clear,220,2013-05-10 23:14:00
6:33 PM,64.4,28.4,26,29.91,10.0,SSW,11.5,17.3,N/A,,Clear,210,2013-05-10 23:33:00
6:53 PM,64.4,28.4,26,29.91,10.0,SSW,12.7,-,N/A,,Clear,210,2013-05-10 23:53:00
7:14 PM,64.4,30.2,28,29.91,10.0,SSW,10.4,-,N/A,,Clear,200,2013-05-11 00:14:00
7:32 PM,64.4,32.0,30,29.90,10.0,SSW,11.5,-,N/A,,Scattered Clouds,210,2013-05-11 00:32:00
7:53 PM,62.6,33.8,34,29.89,10.0,SSW,9.2,-,N/A,,Mostly Cloudy,200,2013-05-11 00:53:00
8:13 PM,60.8,42.8,52,29.90,10.0,SSW,6.9,11.5,N/A,Rain,Light Rain,210,2013-05-11 01:13:00
8:33 PM,59.0,42.8,55,29.90,10.0,WSW,10.4,19.6,N/A,,Mostly Cloudy,240,2013-05-11 01:33:00
8:53 PM,55.4,44.6,67,29.90,10.0,WNW,6.9,-,N/A,,Scattered Clouds,290,2013-05-11 01:53:00
9:13 PM,57.2,42.8,59,29.91,10.0,NW,28.8,34.5,N/A,,Scattered Clouds,320,2013-05-11 02:13:00
9:33 PM,55.4,39.2,54,29.94,10.0,NNW,27.6,32.2,N/A,,Scattered Clouds,330,2013-05-11 02:33:00
9:53 PM,53.6,39.2,58,29.95,10.0,NNW,26.5,32.2,N/A,,Scattered Clouds,330,2013-05-11 02:53:00
10:13 PM,51.8,37.4,58,29.97,10.0,NNW,25.3,32.2,N/A,,Scattered Clouds,330,2013-05-11 03:13:00
10:33 PM,50.0,37.4,62,29.98,10.0,NNW,24.2,31.1,N/A,,Clear,330,2013-05-11 03:33:00
10:53 PM,48.2,35.6,62,29.99,10.0,NNW,24.2,32.2,N/A,,Clear,330,2013-05-11 03:53:00
11:14 PM,48.2,35.6,62,30.01,10.0,NNW,20.7,27.6,N/A,,Clear,330,2013-05-11 04:14:00
11:33 PM,46.4,35.6,66,30.02,10.0,NNW,21.9,28.8,N/A,,Clear,330,2013-05-11 04:33:00
11:53 PM,46.4,35.6,66,30.03,10.0,NNW,17.3,25.3,N/A,,Clear,330,2013-05-11 04:53:00